Location: Granada Hills
(34.2650°N, 118.5220°W)
Time: 17:21:02
(UTC-07:00)

deb Kosmos-1763 - Visible Passes

Search period start: 01 September 2015 00:00
Search period end: 11 September 2015 00:00
Orbit: 530 x 545 km, 74.0° (Epoch: 31 August)

Date Brightness Start Highest point End Pass type
(mag) Time Alt. Az. Time Alt. Az. Time Alt. Az.
01 Sep 6.3 20:46:46 10° NW 20:50:12 27° WSW 20:53:33 10° SSW visible
02 Sep 6.5 20:38:28 10° NW 20:41:47 24° WSW 20:44:59 10° SSW visible
03 Sep 6.8 20:30:11 10° NW 20:33:21 22° W 20:36:24 10° SSW visible
04 Sep 7.0 20:21:55 10° NW 20:24:55 20° W 20:27:46 10° SSW visible
05 Sep 7.2 20:13:39 10° NW 20:16:27 18° W 20:19:07 10° SW visible
06 Sep 7.3 20:05:25 10° WNW 20:07:59 16° W 20:10:24 10° SW visible
07 Sep 7.4 19:57:13 10° WNW 19:59:32 15° W 20:01:39 10° SW visible
08 Sep 7.6 19:49:04 10° WNW 19:51:03 13° W 19:52:50 10° SW visible
09 Sep 7.8 19:40:59 10° WNW 19:42:34 12° W 19:43:54 10° WSW visible
10 Sep 8.1 19:33:11 10° W 19:34:04 10° W 19:34:40 10° WSW visible
